Regional Weather Roundup
Issued by NWS

Home | Current Version | Previous Version | Graphics & Text | Print | Product List | Glossary On
Versions: 1 2 3 4 5 6 7 8 9 10 11 12 13 14 15 16 17 18 19 20 21 22 23 24 25 26 27 28 29 30 31 32 33 34 35 36 37 38 39 40 41 42 43 44 45 46 47 48 49 50
000
ASUS43 KLSX 301759
RWRMO

WEATHER SUMMARY FOR MISSOURI
NATIONAL WEATHER SERVICE SPRINGFIELD MO
100 PM CDT THU JUL 30 2015

NOTE: "FAIR" INDICATES FEW OR NO CLOUDS BELOW 12,000 FEET WITH NO
       SIGNIFICANT WEATHER AND/OR OBSTRUCTIONS TO VISIBILITY.
       CURRENT SKY AND/OR WEATHER CONDITIONS ARE NOT AVAILABLE FOR
       CHILLICOTHE AND FARMINGTON.

MOZ001>031-035>038-043-044-053-054-301900-
...NORTHERN AND WESTERN MISSOURI...

CITY           SKY/WX    TMP DP  RH WIND       PRES   REMARKS
KANSAS CTY INT PTSUNNY   82  62  50 VRB3      30.22F
6HR MIN TEMP:  67; 6HR MAX TEMP:  82;

KANSAS C DTWN  CLOUDY    87  58  37 VRB3      30.20F
6HR MIN TEMP:  68; 6HR MAX TEMP:  87;

LEE`S SUMMIT   CLOUDY    84  57  39 SW6       30.22F
6HR MIN TEMP:  67; 6HR MAX TEMP:  85;

ST JOSEPH      MOSUNNY   84  66  54 SW7       30.21F
6HR MIN TEMP:  62; 6HR MAX TEMP:  84;

CHILLICOTHE      N/A     85  65  51 VRB6      30.21F
6HR MIN TEMP:  64; 6HR MAX TEMP:  86;

KIRKSVILLE     SUNNY     85  58  39 W10       30.20F
6HR MIN TEMP:  64; 6HR MAX TEMP:  86; 6HR PCP: TRACE;


$$
MOZ066>068-077>081-088>096-101>105-301900-
...SOUTHWEST MISSOURI...

CITY           SKY/WX    TMP DP  RH WIND       PRES   REMARKS
SPRINGFIELD    MOSUNNY   86  53  32 E10       30.21F
6HR MIN TEMP:  69; 6HR MAX TEMP:  86;

JOPLIN         MOSUNNY   87  62  43 E8        30.20F
6HR MIN TEMP:  73; 6HR MAX TEMP:  87;


$$
MOZ032>034-039>042-045>050-055>058-069>072-301900-
...CENTRAL MISSOURI...

CITY           SKY/WX    TMP DP  RH WIND       PRES   REMARKS
COLUMBIA       MOSUNNY   86  57  37 VRB5      30.21S
6HR MIN TEMP:  66; 6HR MAX TEMP:  88;

JEFFERSON CITY MOSUNNY   87  54  32 VRB3      30.18F
6HR MIN TEMP:  64; 6HR MAX TEMP:  87;

ROLLA          SUNNY     85  57  38 E7        30.20F
6HR MIN TEMP:  64; 6HR MAX TEMP:  85;

SEDALIA        MOSUNNY   87  56  34 SE5       30.22F
6HR MIN TEMP:  67; 6HR MAX TEMP:  88;

OSAGE BEACH    MOSUNNY   84  55  37 NE5       30.21F

$$
MOZ051-052-059>065-301900-
...EAST CENTRAL MISSOURI...

CITY           SKY/WX    TMP DP  RH WIND       PRES   REMARKS
ST LOUIS INTL  PTSUNNY   89  58  34 NW5       30.18F
6HR MIN TEMP:  72; 6HR MAX TEMP:  90;

SPIRIT OF STL  MOSUNNY   86  63  45 W6        30.16F
6HR MIN TEMP:  65; 6HR MAX TEMP:  87;

ST CHARLES     SUNNY     87  61  41 NW8       30.16F
6HR MIN TEMP:  69; 6HR MAX TEMP:  87;


$$
MOZ072>076-082>087-097>100-106>115-301900-
...SOUTH CENTRAL AND SOUTHEAST MISSOURI...

CITY           SKY/WX    TMP DP  RH WIND       PRES   REMARKS
CAPE GIRARDEAU NOT AVBL
FARMINGTON     SUNNY     84  55  37 E6        30.23F
6HR MIN TEMP:  64; 6HR MAX TEMP:  84;

POPLAR BLUFF   SUNNY     86  62  44 NE10      30.16S
6HR MIN TEMP:  70; 6HR MAX TEMP:  86;

WEST PLAINS    SUNNY     84  59  42 VRB6      30.23F
6HR MIN TEMP:  67; 6HR MAX TEMP:  84;


$$


USA.gov is the U.S. government's official web portal to all federal, state and local government web resources and services.